Location: Rowland
(34.5359°N, 79.2929°W)
Time: 21:32:23
(UTC+00:00)

Transit 4A - Pass Details

Date: 06 October 2022
Orbit: 871 x 972 km, 66.8° (Epoch: 01 December)

Event Time Altitude Azimuth Distance (km) Brightness Sun altitude
Rises 12:58:14 0° 317° (NW) 3,468 10.4 19.7°
Reaches altitude 10° 13:01:13 10° 304° (WNW) 2,521 9.7 20.2°
Maximum altitude 13:05:36 23° 254° (WSW) 1,786 9.1 21.1°
Drops below altitude 10° 13:10:00 10° 205° (SSW) 2,516 10.2 21.9°
Sets 13:12:59 0° 190° (S) 3,458 11.1 22.5°
